FW8904 Weather Reports


time (UTC)temp
C
wind
direction
speed
KPH
gust
KPH
rain 1hr
cm
rain 24hr
cm
rain mn
cm
humidity
%
barometer
mb
20260504231029 17 251 0.0 0.0 0.00 0.00 0.00 54 1010.1
20260504225532 17 136 0.0 0.0 0.00 0.00 0.00 53 1010.1
20260504224528 17 171 0.0 0.0 0.00 0.00 0.00 51 1010.0
20260504224029 18 133 0.0 9.7 0.00 0.00 0.00 50 1010.1
20260504222529 18 238 0.0 9.7 0.00 0.00 0.00 50 1009.8
20260504221528 18 256 0.0 0.0 0.00 0.00 0.00 50 1009.9
20260504220528 18 155 0.0 0.0 0.00 0.00 0.00 49 1009.8
20260504220030 18 220 0.0 0.0 0.00 0.00 0.00 48 1009.7
20260504214529 19 238 0.0 0.0 0.00 0.00 0.00 47 1009.8
20260504213525 20 221 0.0 0.0 0.00 0.00 0.00 45 1009.6
20260504212529 20 162 0.0 0.0 0.00 0.00 0.00 45 1009.6
20260504211524 21 152 0.0 0.0 0.00 0.00 0.00 44 1009.4
20260504210523 20 176 0.0 11.3 0.00 0.00 0.00 41 1009.5
20260504205525 21 217 0.0 6.4 0.00 0.00 0.00 41 1009.4
20260504205024 21 233 0.0 0.0 0.00 0.00 0.00 40 1009.4
20260504203525 20 296 0.0 3.2 0.00 0.00 0.00 40 1009.5
20260504202524 20 184 0.0 1.6 0.00 0.00 0.00 39 1009.4
20260504202026 20 269 0.0 6.4 0.00 0.00 0.00 39 1009.4
20260504200523 20 245 0.0 4.8 0.00 0.00 0.00 38 1009.6
20260504195524 21 234 1.6 14.5 0.00 0.00 0.00 37 1009.6
20260504194523 21 262 0.0 9.7 0.00 0.00 0.00 36 1009.4
20260504193523 21 234 0.0 1.6 0.00 0.00 0.00 36 1009.6
20260504192522 21 311 0.0 8.0 0.00 0.00 0.00 38 1009.6
20260504191520 21 202 0.0 4.8 0.00 0.00 0.00 36 1009.6
20260504190519 21 300 0.0 0.0 0.00 0.00 0.00 36 1009.6
20260504185525 21 305 0.0 9.7 0.00 0.00 0.00 35 1009.7
20260504184519 21 160 0.0 3.2 0.00 0.00 0.00 38 1009.8
20260504184022 20 176 1.6 16.1 0.00 0.00 0.00 37 1010.0
20260504182521 20 167 1.6 9.7 0.00 0.00 0.00 36 1010.1
20260504181520 20 233 1.6 17.7 0.00 0.00 0.00 34 1010.1
20260504180519 20 250 0.0 12.9 0.00 0.00 0.00 36 1010.2
20260504175525 20 219 0.0 11.3 0.00 0.00 0.00 35 1010.3
20260504174519 20 181 0.0 9.7 0.00 0.00 0.00 35 1010.4
20260504173520 20 214 0.0 0.0 0.00 0.00 0.00 36 1010.4
20260504172520 20 113 0.0 11.3 0.00 0.00 0.00 34 1010.7
20260504171520 20 200 1.6 20.9 0.00 0.00 0.00 35 1010.5
20260504170514 20 273 0.0 9.7 0.00 0.00 0.00 36 1010.5
20260504150507 18 240 0.0 9.7 0.00 0.00 0.00 42 1011.9
20260504140502 16 259 0.0 12.9 0.00 0.00 0.00 45 1012.1
20260504110454 8 293 1.6 16.1 0.00 0.00 0.00 65 1013.0
20260504100455 1 17 0.0 0.0 0.00 0.00 0.00 87 1012.7
20260504081953 7 238 0.0 0.0 0.00 0.00 0.00 64 1012.4
20260504050445 1 244 0.0 0.0 0.00 0.00 0.00 87 1012.6
20260504045448 1 244 0.0 0.0 0.00 0.00 0.00 86 1012.7
20260504044446 1 244 0.0 0.0 0.00 0.00 0.00 86 1012.7
20260504043445 1 245 0.0 0.0 0.00 0.00 0.00 85 1012.8
20260504042445 2 244 0.0 0.0 0.00 0.00 0.00 84 1012.7
20260504041444 2 245 0.0 0.0 0.00 0.00 0.00 84 1012.6
20260504035944 2 244 0.0 0.0 0.00 0.00 0.00 85 1012.5
20260504034443 2 245 0.0 0.0 0.00 0.00 0.00 84 1012.5
20260504033445 2 245 0.0 0.0 0.00 0.00 0.00 84 1012.4
20260504032442 2 244 0.0 0.0 0.00 0.00 0.00 84 1012.4
20260504031947 2 244 0.0 0.0 0.00 0.00 0.00 83 1012.4
20260504030443 2 245 0.0 0.0 0.00 0.00 0.00 83 1012.3
20260504025943 2 244 0.0 0.0 0.00 0.00 0.00 81 1012.2
20260504024945 2 244 0.0 0.0 0.00 0.00 0.00 80 1012.1
20260504023443 2 244 0.0 0.0 0.00 0.00 0.00 79 1012.0
20260504022444 3 245 0.0 0.0 0.00 0.00 0.00 78 1012.0
20260504021945 3 244 0.0 0.0 0.00 0.00 0.00 77 1011.9
20260504020942 3 240 0.0 0.0 0.00 0.00 0.00 77 1011.8
20260504015441 3 239 0.0 0.0 0.00 0.00 0.00 78 1011.8
20260504014441 3 243 0.0 0.0 0.00 0.00 0.00 79 1011.7
20260504013442 3 239 0.0 0.0 0.00 0.00 0.00 79 1011.6
20260504012942 3 239 0.0 0.0 0.00 0.00 0.00 78 1011.5
20260504011441 3 244 0.0 0.0 0.00 0.00 0.00 78 1011.4
20260504010442 3 244 0.0 0.0 0.00 0.00 0.00 76 1011.3
20260504005441 3 244 0.0 0.0 0.00 0.00 0.00 76 1011.1
20260504004944 4 244 0.0 0.0 0.00 0.00 0.00 74 1011.0
20260504003435 5 244 0.0 0.0 0.00 0.00 0.00 72 1010.9
20260504002434 5 244 0.0 0.0 0.00 0.00 0.00 70 1010.7
20260504001435 6 244 0.0 0.0 0.00 0.00 0.00 66 1010.6
20260504000434 6 244 0.0 0.0 0.00 0.00 0.00 63 1010.6
20260503235435 7 244 0.0 0.0 0.00 0.00 0.00 59 1010.6
20260503234434 8 244 0.0 0.0 0.00 0.00 0.00 54 1010.4
20260503233434 8 244 0.0 0.0 0.00 0.00 0.00 54 1010.5
20260503232437 9 244 0.0 0.0 0.00 0.00 0.00 52 1010.3